Location: Lussas
(44.6119°N, 4.4726°E)
Time: 06:39:03
(UTC+00:00)

N. Korean satellite - Visible Passes

Search period start: 04 March 2021 00:00
Search period end: 14 March 2021 00:00
Orbit: 451 x 502 km, 97.2° (Epoch: 03 March)

Date Brightness Start Highest point End Pass type
(mag) Time Alt. Az. Time Alt. Az. Time Alt. Az.
04 Mar 7.2 04:59:07 10° NNE 05:02:38 58° E 05:06:10 10° S visible
05 Mar 8.8 04:32:44 10° NE 04:35:47 26° E 04:38:52 10° SSE visible
06 Mar 9.8 04:07:04 10° ENE 04:08:50 13° E 04:10:38 10° ESE visible
06 Mar 7.0 05:38:58 10° N 05:42:20 41° WNW 05:45:44 10° SW visible
07 Mar 6.6 05:12:03 10° NNE 05:15:37 87° ESE 05:19:14 10° SSW visible
08 Mar 8.1 04:45:26 10° NNE 04:48:48 38° E 04:52:12 10° SSE visible
09 Mar 9.5 04:19:16 10° NE 04:21:53 19° E 04:24:31 10° SE visible
10 Mar 6.6 05:24:58 10° N 05:28:32 63° WNW 05:32:07 10° SSW visible
11 Mar 7.3 04:58:10 10° NNE 05:01:45 57° E 05:05:19 10° S visible
12 Mar 8.9 04:31:44 10° NE 04:34:51 27° E 04:37:58 10° SSE visible
13 Mar 9.9 04:06:01 10° ENE 04:07:51 13° E 04:09:41 10° ESE visible
